Time,TemperatureF,DewpointF,PressureIn,WindDirection,WindDirectionDegrees,WindSpeedMPH,WindSpeedGustMPH,Humidity,HourlyPrecipIn,Conditions,Clouds,dailyrainin,SoftwareType,DateUTC
2013-01-20 00:06:00,23.0,15.0,30.38,NNW,327,5.0,-999.0,70,-99.99,,,0.00,weatherlink.com 1.10,2013-01-20 06:06:00,
2013-01-20 00:21:00,22.5,14.0,30.37,NNW,329,7.0,-999.0,71,-99.99,,,0.00,weatherlink.com 1.10,2013-01-20 06:21:00,
2013-01-20 00:36:00,22.2,13.0,30.37,NNW,346,6.0,-999.0,69,-99.99,,,0.00,weatherlink.com 1.10,2013-01-20 06:36:00,
2013-01-20 00:51:00,21.6,13.0,30.37,North,355,5.0,-999.0,70,-99.99,,,0.00,weatherlink.com 1.10,2013-01-20 06:51:00,
2013-01-20 01:06:00,21.2,12.0,30.35,NNW,346,11.0,-999.0,69,-99.99,,,0.00,weatherlink.com 1.10,2013-01-20 07:06:00,
2013-01-20 01:21:00,20.7,12.0,30.36,North,5,13.0,-999.0,69,-99.99,,,0.00,weatherlink.com 1.10,2013-01-20 07:21:00,
2013-01-20 01:37:00,20.4,12.0,30.36,NNW,338,3.0,-999.0,69,-99.99,,,0.00,weatherlink.com 1.10,2013-01-20 07:37:00,
2013-01-20 01:52:00,20.1,11.0,30.38,NW,320,5.0,-999.0,69,-99.99,,,0.00,weatherlink.com 1.10,2013-01-20 07:52:00,
2013-01-20 02:07:00,19.8,12.0,30.38,NNW,330,4.0,-999.0,70,-99.99,,,0.00,weatherlink.com 1.10,2013-01-20 08:07:00,
2013-01-20 02:22:00,19.6,11.0,30.38,NNW,345,6.0,-999.0,70,-99.99,,,0.00,weatherlink.com 1.10,2013-01-20 08:22:00,
2013-01-20 02:37:00,19.4,12.0,30.38,North,355,5.0,-999.0,72,-99.99,,,0.00,weatherlink.com 1.10,2013-01-20 08:37:00,
2013-01-20 02:52:00,19.1,11.0,30.38,North,350,5.0,-999.0,72,-99.99,,,0.00,weatherlink.com 1.10,2013-01-20 08:52:00,
2013-01-20 03:07:00,18.9,11.0,30.38,NNW,348,1.0,-999.0,72,-99.99,,,0.00,weatherlink.com 1.10,2013-01-20 09:07:00,
2013-01-20 03:22:00,18.7,11.0,30.38,NNW,348,5.0,-999.0,72,-99.99,,,0.00,weatherlink.com 1.10,2013-01-20 09:22:00,
2013-01-20 03:37:00,18.5,11.0,30.37,NNW,346,1.0,-999.0,73,-99.99,,,0.00,weatherlink.com 1.10,2013-01-20 09:37:00,
2013-01-20 03:52:00,18.5,11.0,30.37,NNW,332,3.0,-999.0,72,-99.99,,,0.00,weatherlink.com 1.10,2013-01-20 09:52:00,
2013-01-20 04:07:00,18.4,10.0,30.38,NNW,333,0.0,-999.0,71,-99.99,,,0.00,weatherlink.com 1.10,2013-01-20 10:07:00,
2013-01-20 04:22:00,18.1,10.0,30.37,NNW,334,2.0,-999.0,71,-99.99,,,0.00,weatherlink.com 1.10,2013-01-20 10:22:00,
2013-01-20 04:37:00,17.9,10.0,30.37,NNW,334,1.0,-999.0,71,-99.99,,,0.00,weatherlink.com 1.10,2013-01-20 10:37:00,
2013-01-20 04:52:00,17.6,10.0,30.37,NNW,334,4.0,-999.0,72,-99.99,,,0.00,weatherlink.com 1.10,2013-01-20 10:52:00,
2013-01-20 05:07:00,17.4,10.0,30.37,NNW,334,0.0,-999.0,72,-99.99,,,0.00,weatherlink.com 1.10,2013-01-20 11:07:00,
2013-01-20 05:22:00,17.2,10.0,30.37,NNW,335,2.0,-999.0,73,-99.99,,,0.00,weatherlink.com 1.10,2013-01-20 11:22:00,
2013-01-20 05:37:00,17.1,10.0,30.37,NNW,335,1.0,-999.0,73,-99.99,,,0.00,weatherlink.com 1.10,2013-01-20 11:37:00,
2013-01-20 05:52:00,16.9,10.0,30.38,NNW,335,0.0,-999.0,73,-99.99,,,0.00,weatherlink.com 1.10,2013-01-20 11:52:00,
2013-01-20 06:07:00,16.6,10.0,30.38,NNW,335,0.0,-999.0,74,-99.99,,,0.00,weatherlink.com 1.10,2013-01-20 12:07:00,
2013-01-20 06:22:00,16.2,9.0,30.38,NNW,335,1.0,-999.0,74,-99.99,,,0.00,weatherlink.com 1.10,2013-01-20 12:22:00,
2013-01-20 06:37:00,16.0,9.0,30.37,NNW,335,0.0,-999.0,75,-99.99,,,0.00,weatherlink.com 1.10,2013-01-20 12:37:00,
2013-01-20 06:52:00,15.6,9.0,30.38,NNW,336,0.0,-999.0,76,-99.99,,,0.00,weatherlink.com 1.10,2013-01-20 12:52:00,
2013-01-20 07:07:00,15.1,9.0,30.39,NNW,336,4.0,-999.0,76,-99.99,,,0.00,weatherlink.com 1.10,2013-01-20 13:07:00,
2013-01-20 07:22:00,15.5,10.0,30.39,NNW,336,0.0,-999.0,78,-99.99,,,0.00,weatherlink.com 1.10,2013-01-20 13:22:00,
2013-01-20 07:37:00,16.1,10.0,30.40,NNW,336,3.0,-999.0,77,-99.99,,,0.00,weatherlink.com 1.10,2013-01-20 13:37:00,
2013-01-20 07:52:00,16.3,10.0,30.39,NNW,336,1.0,-999.0,76,-99.99,,,0.00,weatherlink.com 1.10,2013-01-20 13:52:00,
2013-01-20 08:07:00,16.8,10.0,30.39,NNW,336,1.0,-999.0,74,-99.99,,,0.00,weatherlink.com 1.10,2013-01-20 14:07:00,
2013-01-20 08:22:00,17.1,10.0,30.39,NNW,336,1.0,-999.0,74,-99.99,,,0.00,weatherlink.com 1.10,2013-01-20 14:22:00,
2013-01-20 08:37:00,17.5,10.0,30.39,NNW,336,5.0,-999.0,73,-99.99,,,0.00,weatherlink.com 1.10,2013-01-20 14:37:00,
2013-01-20 08:52:00,18.0,11.0,30.40,NNW,342,6.0,-999.0,73,-99.99,,,0.00,weatherlink.com 1.10,2013-01-20 14:52:00,
2013-01-20 09:07:00,18.8,11.0,30.40,NNW,346,5.0,-999.0,71,-99.99,,,0.00,weatherlink.com 1.10,2013-01-20 15:07:00,
2013-01-20 09:22:00,20.2,12.0,30.41,NNW,340,6.0,-999.0,70,-99.99,,,0.00,weatherlink.com 1.10,2013-01-20 15:22:00,
2013-01-20 09:37:00,21.4,12.0,30.41,NNW,344,5.0,-999.0,67,-99.99,,,0.00,weatherlink.com 1.10,2013-01-20 15:37:00,
2013-01-20 09:52:00,22.2,12.0,30.41,North,360,5.0,-999.0,64,-99.99,,,0.00,weatherlink.com 1.10,2013-01-20 15:52:00,
2013-01-20 10:07:00,22.0,11.0,30.41,NNE,20,4.0,-999.0,62,-99.99,,,0.00,weatherlink.com 1.10,2013-01-20 16:07:00,
2013-01-20 10:22:00,21.7,10.0,30.43,NNE,31,5.0,-999.0,62,-99.99,,,0.00,weatherlink.com 1.10,2013-01-20 16:22:00,
2013-01-20 10:37:00,21.8,11.0,30.44,North,5,4.0,-999.0,63,-99.99,,,0.00,weatherlink.com 1.10,2013-01-20 16:37:00,
2013-01-20 10:52:00,21.5,10.0,30.44,North,11,2.0,-999.0,61,-99.99,,,0.00,weatherlink.com 1.10,2013-01-20 16:52:00,
2013-01-20 11:07:00,22.0,11.0,30.45,NNE,13,5.0,-999.0,62,-99.99,,,0.00,weatherlink.com 1.10,2013-01-20 17:07:00,
2013-01-20 11:22:00,22.9,11.0,30.46,North,5,5.0,-999.0,60,-99.99,,,0.00,weatherlink.com 1.10,2013-01-20 17:22:00,
2013-01-20 11:37:00,23.8,11.0,30.46,North,9,4.0,-999.0,58,-99.99,,,0.00,weatherlink.com 1.10,2013-01-20 17:37:00,
2013-01-20 11:52:00,23.1,10.0,30.46,NNW,333,5.0,-999.0,57,-99.99,,,0.00,weatherlink.com 1.10,2013-01-20 17:52:00,
2013-01-20 12:07:00,23.1,10.0,30.46,NNW,341,1.0,-999.0,58,-99.99,,,0.00,weatherlink.com 1.10,2013-01-20 18:07:00,
2013-01-20 12:22:00,23.1,9.0,30.46,NW,317,3.0,-999.0,56,-99.99,,,0.00,weatherlink.com 1.10,2013-01-20 18:22:00,
2013-01-20 12:38:00,23.0,8.0,30.44,NW,317,2.0,-999.0,53,-99.99,,,0.00,weatherlink.com 1.10,2013-01-20 18:38:00,
2013-01-20 12:53:00,22.9,9.0,30.43,North,351,1.0,-999.0,56,-99.99,,,0.00,weatherlink.com 1.10,2013-01-20 18:53:00,
2013-01-20 13:08:00,22.7,9.0,30.43,NNW,348,3.0,-999.0,56,-99.99,,,0.00,weatherlink.com 1.10,2013-01-20 19:08:00,
2013-01-20 13:23:00,22.2,8.0,30.43,NNW,345,2.0,-999.0,54,-99.99,,,0.00,weatherlink.com 1.10,2013-01-20 19:23:00,
2013-01-20 13:38:00,22.5,8.0,30.43,NNW,339,2.0,-999.0,54,-99.99,,,0.00,weatherlink.com 1.10,2013-01-20 19:38:00,
2013-01-20 13:53:00,22.3,7.0,30.43,NW,319,2.0,-999.0,53,-99.99,,,0.00,weatherlink.com 1.10,2013-01-20 19:53:00,
2013-01-20 14:08:00,22.1,8.0,30.43,NW,322,6.0,-999.0,56,-99.99,,,0.00,weatherlink.com 1.10,2013-01-20 20:08:00,
2013-01-20 14:23:00,22.2,9.0,30.43,North,350,8.0,-999.0,56,-99.99,,,0.00,weatherlink.com 1.10,2013-01-20 20:23:00,
2013-01-20 14:38:00,22.1,8.0,30.43,NNW,343,6.0,-999.0,56,-99.99,,,0.00,weatherlink.com 1.10,2013-01-20 20:38:00,
2013-01-20 14:53:00,21.5,8.0,30.44,NNW,348,2.0,-999.0,56,-99.99,,,0.00,weatherlink.com 1.10,2013-01-20 20:53:00,
2013-01-20 15:08:00,21.9,9.0,30.44,North,355,9.0,-999.0,59,-99.99,,,0.00,weatherlink.com 1.10,2013-01-20 21:08:00,
2013-01-20 15:23:00,22.1,10.0,30.44,NNW,346,5.0,-999.0,60,-99.99,,,0.00,weatherlink.com 1.10,2013-01-20 21:23:00,
2013-01-20 15:38:00,21.7,10.0,30.44,NNE,17,8.0,-999.0,62,-99.99,,,0.00,weatherlink.com 1.10,2013-01-20 21:38:00,
2013-01-20 15:53:00,21.7,11.0,30.44,North,351,5.0,-999.0,64,-99.99,,,0.00,weatherlink.com 1.10,2013-01-20 21:53:00,
2013-01-20 16:08:00,21.6,12.0,30.44,NW,320,5.0,-999.0,66,-99.99,,,0.00,weatherlink.com 1.10,2013-01-20 22:08:00,
2013-01-20 16:23:00,21.7,12.0,30.44,NNW,339,2.0,-999.0,67,-99.99,,,0.00,weatherlink.com 1.10,2013-01-20 22:23:00,
2013-01-20 16:38:00,21.1,13.0,30.44,NW,321,2.0,-999.0,70,-99.99,,,0.00,weatherlink.com 1.10,2013-01-20 22:38:00,
2013-01-20 16:53:00,21.1,13.0,30.45,North,350,5.0,-999.0,71,-99.99,,,0.00,weatherlink.com 1.10,2013-01-20 22:53:00,
2013-01-20 17:08:00,20.6,13.0,30.45,North,355,2.0,-999.0,71,-99.99,,,0.00,weatherlink.com 1.10,2013-01-20 23:08:00,
2013-01-20 17:23:00,19.7,12.0,30.45,NNW,348,2.0,-999.0,72,-99.99,,,0.00,weatherlink.com 1.10,2013-01-20 23:23:00,
2013-01-20 17:38:00,18.7,12.0,30.45,North,349,0.0,-999.0,74,-99.99,,,0.00,weatherlink.com 1.10,2013-01-20 23:38:00,
2013-01-20 17:53:00,18.2,12.0,30.46,NNW,342,1.0,-999.0,75,-99.99,,,0.00,weatherlink.com 1.10,2013-01-20 23:53:00,
2013-01-20 18:08:00,18.1,12.0,30.47,NNW,336,2.0,-999.0,76,-99.99,,,0.00,weatherlink.com 1.10,2013-01-21 00:08:00,
2013-01-20 18:23:00,18.2,12.0,30.47,WNW,287,0.0,-999.0,76,-99.99,,,0.00,weatherlink.com 1.10,2013-01-21 00:23:00,
2013-01-20 18:38:00,17.9,12.0,30.47,WNW,286,0.0,-999.0,76,-99.99,,,0.00,weatherlink.com 1.10,2013-01-21 00:38:00,
2013-01-20 18:53:00,17.5,11.0,30.47,WNW,286,0.0,-999.0,76,-99.99,,,0.00,weatherlink.com 1.10,2013-01-21 00:53:00,
2013-01-20 19:08:00,17.2,11.0,30.47,WNW,286,1.0,-999.0,77,-99.99,,,0.00,weatherlink.com 1.10,2013-01-21 01:08:00,
2013-01-20 19:23:00,17.1,11.0,30.46,WNW,286,0.0,-999.0,77,-99.99,,,0.00,weatherlink.com 1.10,2013-01-21 01:23:00,
2013-01-20 19:38:00,16.9,11.0,30.47,WNW,297,0.0,-999.0,77,-99.99,,,0.00,weatherlink.com 1.10,2013-01-21 01:38:00,
2013-01-20 19:53:00,16.7,11.0,30.47,WNW,297,0.0,-999.0,77,-99.99,,,0.00,weatherlink.com 1.10,2013-01-21 01:53:00,
2013-01-20 20:08:00,16.3,10.0,30.48,WNW,297,1.0,-999.0,77,-99.99,,,0.00,weatherlink.com 1.10,2013-01-21 02:08:00,
2013-01-20 20:23:00,16.2,11.0,30.47,WNW,299,0.0,-999.0,78,-99.99,,,0.00,weatherlink.com 1.10,2013-01-21 02:23:00,
2013-01-20 20:38:00,16.1,10.0,30.46,NNW,340,6.0,-999.0,78,-99.99,,,0.00,weatherlink.com 1.10,2013-01-21 02:38:00,
2013-01-20 20:53:00,16.0,10.0,30.48,NNW,339,3.0,-999.0,78,-99.99,,,0.00,weatherlink.com 1.10,2013-01-21 02:53:00,
2013-01-20 21:08:00,15.8,10.0,30.49,NNW,346,4.0,-999.0,79,-99.99,,,0.00,weatherlink.com 1.10,2013-01-21 03:08:00,
2013-01-20 21:23:00,16.0,11.0,30.48,NNW,348,7.0,-999.0,79,-99.99,,,0.00,weatherlink.com 1.10,2013-01-21 03:23:00,
2013-01-20 21:38:00,15.8,10.0,30.49,NNW,343,5.0,-999.0,78,-99.99,,,0.00,weatherlink.com 1.10,2013-01-21 03:38:00,
2013-01-20 21:53:00,15.9,10.0,30.48,NNW,346,2.0,-999.0,78,-99.99,,,0.00,weatherlink.com 1.10,2013-01-21 03:53:00,
2013-01-20 22:08:00,15.8,10.0,30.48,NNW,346,0.0,-999.0,78,-99.99,,,0.00,weatherlink.com 1.10,2013-01-21 04:08:00,
2013-01-20 22:24:00,15.9,10.0,30.46,NNW,346,0.0,-999.0,77,-99.99,,,0.00,weatherlink.com 1.10,2013-01-21 04:24:00,
2013-01-20 22:39:00,15.7,10.0,30.48,NNW,346,0.0,-999.0,78,-99.99,,,0.00,weatherlink.com 1.10,2013-01-21 04:39:00,
2013-01-20 22:54:00,15.6,10.0,30.47,NNW,345,0.0,-999.0,78,-99.99,,,0.00,weatherlink.com 1.10,2013-01-21 04:54:00,
2013-01-20 23:09:00,15.6,10.0,30.47,NNW,346,0.0,-999.0,78,-99.99,,,0.00,weatherlink.com 1.10,2013-01-21 05:09:00,
2013-01-20 23:24:00,15.7,10.0,30.48,NNW,346,0.0,-999.0,78,-99.99,,,0.00,weatherlink.com 1.10,2013-01-21 05:24:00,
2013-01-20 23:39:00,16.1,10.0,30.48,NNW,331,0.0,-999.0,78,-99.99,,,0.00,weatherlink.com 1.10,2013-01-21 05:39:00,
2013-01-20 23:54:00,16.4,10.0,30.48,NNW,331,0.0,-999.0,77,-99.99,,,0.00,weatherlink.com 1.10,2013-01-21 05:54:00,